Regional Weather Roundup
Issued by NWS

Home | Current Version | Previous Version | Text Only | Print | Product List | Glossary On
Versions: 1 2 3 4 5 6 7 8 9 10 11 12 13 14 15 16 17 18 19 20 21 22 23 24 25 26 27 28 29 30 31 32 33 34 35 36 37 38 39 40 41 42 43 44 45 46 47 48 49 50
000
ASUS43 KLOT 301909
RWRIL

ILLINOIS REGIONAL WEATHER ROUNDUP
NATIONAL WEATHER SERVICE CHICAGO/ROMEOVILLE IL
200 PM CDT TUE AUG 30 2016

NOTE: "FAIR" INDICATES FEW OR NO CLOUDS BELOW 12,000 FEET WITH NO
SIGNIFICANT WEATHER AND/OR OBSTRUCTIONS TO VISIBILITY.

* THESE STATIONS ARE NOT UNDER NWS QUALITY CONTROL. THEY ALSO MAY NOT
  REPORT WEATHER SUCH AS PRECIPITATION OR FOG.

ILZ001-002-007-009-015-016-024-302000-
NORTHWEST ILLINOIS

CITY           SKY/WX    TMP DP  RH WIND       PRES   REMARKS
MOLINE         CLOUDY    82  71  69 NW8       30.11F HX  86
STERLING*      PTSUNNY   82  73  74 NW7       30.11F HX  87
SAVANNA*       CLOUDY    82  72  70 W6        30.11F HX  87
$$

ILZ003-004-008-010-011-017-018-302000-
NORTH CENTRAL ILLINOIS

CITY           SKY/WX    TMP DP  RH WIND       PRES   REMARKS
ROCKFORD       PTSUNNY   82  70  66 W6        30.12F HX  86
FREEPORT*      CLOUDY    78  71  80 W3        30.14F HX  80
ROCHELLE*      MOSUNNY   80  70  71 W9        30.12F HX  83
DE KALB*       MOSUNNY   80  69  69 NW3       30.12F HX  83
$$

ILZ005-006-012>014-019>023-302000-
NORTHEAST ILLINOIS

CITY           SKY/WX    TMP DP  RH WIND       PRES   REMARKS
CHICAGO-OHARE  PTSUNNY   81  70  69 S5        30.09F HX  84
CHICAGO-MIDWAY PTSUNNY   85  68  56 SW12G17   30.08F HX  88
AURORA         MOSUNNY   80  69  69 N5        30.12F HX  83
LANSING*       MOSUNNY   83  74  74 W6        30.10F HX  89
JOLIET*        MOSUNNY   83  71  68 W6        30.11F HX  87
WAUKEGAN       MOSUNNY   80  72  76 SE9       30.08F HX  84
DUPAGE AIRPORT MOSUNNY   82  67  60 SW7       30.10F HX  84
KANKAKEE*      CLOUDY    81  71  71 W3        30.11F HX  84
WHEELING       MOSUNNY   84  71  65 W5        30.10F HX  89
MORRIS*        MOSUNNY   82  71  68 W3        30.10F HX  86
ROMEOVILLE*    SUNNY     81  72  74 W6        30.11F HX  85
NORTHERLY ISL    N/A     78  72  81 SE2         N/A  HX  80
$$

LMZ740>746-302000-
SOUTHERN LAKE MICHIGAN

STATION/POSITION SKY/WX   TEMP    WIND        PRES    VSBY  WAVE
                          AIR SEA DIR/SP/G                  HT/PER
                          (F)     (DEG/KT/KT) (MB)    (MI)  (FT/S)
SOUTHERN BUOY              74 76  190/  8/  8 1018.5F         1/ 4
WILMETTE HARBOR            75 74  160/  6/  8   N/A           1/ 4
HARRISON CRIB              77     160/  4/  4   N/A
BURNHAM HARBOR             77     140/  3/  4   N/A
CALUMET HARBOR             77      70/  3/  4 1019.1F
BURNS HARBOR               79     200/  6/ 10 1019.6F
MICHIGAN CITY              76     170/  9/ 10   N/A
MICHIGAN CITY 6N           75 71  250/  4/  6   N/A           0
ST. JOSEPH                 75 75  270/  4/  8 1018.6F         0
$$

ILZ025>027-034>036-040-047-049-050-058-095>099-302000-
WEST-CENTRAL ILLINOIS

CITY           SKY/WX    TMP DP  RH WIND       PRES   REMARKS
QUINCY         LGT RAIN  73  70  90 CALM      30.13F
GALESBURG*     PTSUNNY   81  73  77 W6        30.12F HX  85
MACOMB*        CLOUDY    75  72  89 CALM      30.14F
JACKSONVILLE*  CLOUDY    75  72  90 SW3       30.13F
PITTSFIELD*    LGT RAIN  74  74  98 SE5       30.14F
$$

ILZ028>032-037-038-041>044-048-051>054-059>061-302000-
CENTRAL ILLINOIS

CITY           SKY/WX    TMP DP  RH WIND       PRES   REMARKS
PONTIAC        MOSUNNY   82  75  79 CALM      30.12F HX  88
BLOOMINGTON    MOSUNNY   80  72  76 SW9       30.12F HX  84
DECATUR        CLOUDY    82  75  79 S7        30.10F HX  89
PEORIA         CLOUDY    81  73  76 W7        30.11F HX  86
LACON*         CLOUDY    79  71  77 SW3       30.09F HX  82
LINCOLN*       CLOUDY    81  73  77 SW5       30.11F HX  85
SPRINGFIELD    LGT RAIN  76  73  91 W3        30.13S
TAYLORVILLE    MOSUNNY   78  74  85 W6        30.11F HX  81
$$

ILZ033-039-045-046-055>057-062-063-302000-
EAST-CENTRAL ILLINOIS

CITY           SKY/WX    TMP DP  RH WIND       PRES   REMARKS
CHAMPAIGN      LGT RAIN  80  74  81 SW6       30.10F HX  85
RANTOUL*       CLOUDY    83  76  80 W5        30.10F HX  90
MATTOON        CLOUDY    84  72  67 CALM      30.09F HX  89
PARIS*         MOSUNNY   87  75  68 CALM      30.09F HX  96
$$

ILZ079-100>102-302000-
SOUTHWEST ILLINOIS

CITY           SKY/WX    TMP DP  RH WIND       PRES   REMARKS
BELLEVILLE     PTSUNNY   92  70  48 VRB5      30.07F HX  97
CAHOKIA*       TSTM      79  68  69 N20G39    30.11R HX  81
SPARTA*        PTSUNNY   88  73  61 N3        30.10F HX  96
$$

ILZ064>066-069>071-074>076-080>082-084>086-088>090-092>094-302000-
SOUTH-CENTRAL ILLINOIS

CITY           SKY/WX    TMP DP  RH WIND       PRES   REMARKS
CARBONDALE     MOSUNNY   90  69  50 CALM      30.09F HX  94
CAIRO*         MOSUNNY   91  71  52 E8        30.06F HX  97
EFFINGHAM*     MOSUNNY   90  71  53 CALM      30.10F HX  95
MARION         MOSUNNY   91  72  52 NE6       30.09F HX  98
MT. VERNON     MOSUNNY   91  70  49 NE3       30.10F HX  97
CENTRALIA*     MOSUNNY   90  74  59 SE3       30.09F HX  99
SALEM*         MOSUNNY   89  73  59 NE3       30.10F HX  97
METROPOLIS*    SUNNY     93  71  48 N8        30.07F HX  99
$$

ILZ067-068-072-073-078-083-087-091-302000-
SOUTHEAST ILLINOIS

CITY           SKY/WX    TMP DP  RH WIND       PRES   REMARKS
LAWRENCEVILLE  SUNNY     90  70  51 E3        30.09F HX  95
FLORA*         PTSUNNY   90  74  58 CALM      30.10F HX  98
FAIRFIELD*     PTSUNNY   89  74  62 NE3       30.08F HX  98
HARRISBURG*    PTSUNNY   91  74  57 NE6       30.08F HX 100
ROBINSON*      SUNNY     88  74  63 CALM      30.10F HX  97
CARMI*         SUNNY     90  74  60 CALM      30.08F HX  99
$$

ABBREVIATIONS USED IN REMARKS
   TC - TEMPERATURE IN CELSIUS
  WCI - WIND CHILL INDEX
   HX - HEAT INDEX
  VSB - VISIBILITY
$$




USA.gov is the U.S. government's official web portal to all federal, state and local government web resources and services.